TITAN 3C TRANSTAGE DEB, 1829

Orbit data source: Space-Track

TITAN 3C TRANSTAGE DEB, 1829 is space debris in LEO originally from a launch on Fri, 15 Oct 1965 UTC launched from the Air Force Eastern Test Range (AFETR). Debris objects in space refer to the collection of defunct objects orbiting the Earth. Examples of debris include non-operational satellites, rocket bodies, and fragments generated from explosions, collisions, or faulty payload assembly.

Loading next visibility...
Identifier
1829, 1965-082DU
Orbit
LEO
Country
Flag of USUS
Related business
Manufacturer
Unknown
Mission
Spacecraft
Bus & Motor
Unknown
Mass
Unknown
Launch date (UTC)
1965-10-15 (61 years ago)
Launch vehicle
Unknown
Launch site
Air Force Eastern Test Range (AFETR)
Object type
Payload
Rocket body
Debris
Shape & HBR
Unknown shape, 0.1 m
Radar Cross Section
Medium (>0.1 m² and <1 m²)

Expand to show TLE details & history
Last TLE update: 20 hours ago

TLE from 20 hours ago
0 TITAN 3C TRANSTAGE DEB
1 01829U 65082DU  26236.29136487  .00001949  00000-0  19395-3 0  9993
2 01829  32.2874 229.4659 0023399 358.2242   1.8328 14.89733182230684
Epoch: 2026-08-24T06:59Z
TLE epoch observation values (Epoch: 2026-08-24T06:59:33.924Z)
Latitude
-0.00004°
Longitude
151.99932°
Altitude
581.105 km
Speed
7.581 km/s
True Right ascension
15h 17m 51s
True Declination
0° 00' 00"
Sunlit
Object was in daylight at epoch
Visualization orbit readout
Latitude
Unknown
Longitude
Unknown
Altitude
Unknown
Speed
Unknown
Apparent Right ascension
Unknown
Apparent Declination
Unknown
Sunlit
N/A
Visualization observer readout
Local Sidereal Time
17:55:56
Azimuth
Unknown
Elevation
Unknown
Doppler factor
Unknown
Orbital elements
Apogee altitude
618.719 km
Perigee altitude
586.051 km
Semi-major axis
6,980.522 km
Eccentricity
0.00234
Inclination
32.2874°
RAAN
229.4659°
Arg. of periapsis
358.2242°
True anomaly
1.8414°
Mean anomaly
1.8328°
Eccentric anomaly
1.8371°
Mean motion
3.72144 °/min
Orbital period
96.74 mins
BSTAR
0.00019395

Documentation

Showing up to 5 results
|